This is the latest recevied weather packets stored in our database for station/object W5ADC. If no packets are shown the sender has not sent any weather packets the latest 10 day(s).
| Time | Temp. | Humidity | Pressure | Rain* | Wind** | Luminosity | Snow |
|---|---|---|---|---|---|---|---|
| 1788453982 | 28.33° C | 82% | 1010.6 hPa | 0 mm | - | 199 W/m² | - |
| 1788453678 | 28.33° C | 82% | 1010.5 hPa | 0 mm | - | 125 W/m² | - |
| 1788453373 | 27.78° C | 83% | 1010.6 hPa | 0 mm | - | 197 W/m² | - |
| 1788453069 | 27.78° C | 83% | 1010.6 hPa | 0 mm | - | 147 W/m² | - |
| 1788452765 | 27.78° C | 83% | 1010.6 hPa | 0 mm | - | 175 W/m² | - |
| 1788452461 | 27.78° C | 84% | 1010.4 hPa | 0 mm | - | 104 W/m² | - |
| 1788452156 | 27.78° C | 85% | 1010.5 hPa | 0 mm | - | 186 W/m² | - |
| 1788451852 | 27.78° C | 85% | 1010.5 hPa | 0 mm | - | 134 W/m² | - |
| 1788451550 | 27.22° C | 86% | 1010.5 hPa | 0 mm | - | 87 W/m² | - |
| 1788451245 | 27.78° C | 86% | 1010.6 hPa | 0 mm | - | 99 W/m² | - |
| 1788450944 | 27.22° C | 86% | 1010.5 hPa | 0 mm | - | 142 W/m² | - |
| 1788450640 | 27.22° C | 86% | 1010.4 hPa | 0 mm | - | 127 W/m² | - |
| 1788450336 | 27.22° C | 86% | 1010.4 hPa | 0 mm | - | 143 W/m² | - |
| 1788450032 | 27.22° C | 87% | 1010.6 hPa | 0 mm | - | 172 W/m² | - |
| 1788449727 | 27.22° C | 87% | 1010.3 hPa | 0 mm | - | 105 W/m² | - |
| 1788449423 | 26.67° C | 87% | 1010.5 hPa | 0 mm | - | 64 W/m² | - |
| 1788449119 | 27.22° C | 87% | 1010.4 hPa | 0 mm | - | 73 W/m² | - |
| 1788448815 | 26.67° C | 87% | 1010.4 hPa | 0 mm | - | 100 W/m² | - |
| 1788448513 | 26.67° C | 87% | 1010.3 hPa | 0 mm | - | 117 W/m² | - |
| 1788448209 | 26.67° C | 88% | 1010.4 hPa | 0 mm | - | 96 W/m² | - |
| 1788447903 | 26.67° C | 88% | 1010.4 hPa | 0 mm | - | 94 W/m² | - |
| 1788447598 | 26.67° C | 88% | 1010.5 hPa | 0 mm | - | 51 W/m² | - |
| 1788447293 | 26.67° C | 88% | 1010.3 hPa | 0 mm | - | 86 W/m² | - |
| 1788446988 | 26.67° C | 87% | 1010.4 hPa | 0 mm | - | 101 W/m² | - |
| 1788446687 | 26.67° C | 87% | 1010.5 hPa | 0 mm | - | 113 W/m² | - |
* Rain latest hour (hover to see other rain measurements)
** Current wind speed in m/s (hover to see current wind gust speed)